KB2EAR Kendall Park NJ US current weather conditions

sailwx.info

Wind from 326 at 2 knots gusting 7

Air temperature 3.9° C
Dewpoint -3.4° C

Last reported at 2020-Jan-28 22:05 UTC.
Time now 2020-Jan-28 23:01 UTC

Location: N 40°25' W 074°34'.
View on Google Maps.

See reports from other nearby stations

  
Tides and Currents Weather Stations Pressure Air Temp Water Temp Dewpoint Dewpoint Depression Visibility Wind Speed Wind Dir Waves Ship Positions
date/time (UTC)wind fromknots sea level pressurealtimeterstation pressurevisibilityair tempwater tempwave heightnotes
2020-Jan-28 22:05 326 2 gusting 7 3.9
2020-Jan-28 22:00 318 3 gusting 7 3.9
2020-Jan-28 21:55 328 4 gusting 7 3.9
2020-Jan-28 21:50 334 3 gusting 6 3.9
2020-Jan-28 21:45 327 2 gusting 6 3.9
2020-Jan-28 21:40 323 3 gusting 5 3.9
2020-Jan-28 21:35 327 2 gusting 6 3.9
2020-Jan-28 21:30 321 2 gusting 6 3.9
2020-Jan-28 21:25 343 2 gusting 6 3.9
2020-Jan-28 21:20 338 3 gusting 6 3.9
2020-Jan-28 21:15 339 2 gusting 7 3.9
2020-Jan-28 21:10 330 3 gusting 7 3.9
2020-Jan-28 21:05 326 3 gusting 6 3.9
2020-Jan-28 21:00 342 1 gusting 6 3.9
2020-Jan-28 20:55 323 3 gusting 6 3.9
2020-Jan-28 20:50 329 3 gusting 10 3.9
2020-Jan-28 20:45 339 4 gusting 10 3.9
2020-Jan-28 20:40 344 3 gusting 8 3.9
2020-Jan-28 20:35 324 4 gusting 8 3.9
2020-Jan-28 20:30 337 3 gusting 8 3.9
2020-Jan-28 20:25 350 3 gusting 7 3.9
2020-Jan-28 20:20 340 4 gusting 8 3.9
2020-Jan-28 20:15 334 4 gusting 9 3.9
2020-Jan-28 20:10 335 5 gusting 11 3.9
2020-Jan-28 20:05 338 5 gusting 11 3.9
2020-Jan-28 20:00 341 4 gusting 8 3.9
2020-Jan-28 19:55 314 3 gusting 8 3.9
2020-Jan-28 19:50 338 2 gusting 7 3.9
2020-Jan-28 19:45 315 3 gusting 7 3.9
2020-Jan-28 19:40 315 3 gusting 6 3.9
2020-Jan-28 19:35 313 3 gusting 7 3.9
2020-Jan-28 19:30 330 3 gusting 10 3.9
2020-Jan-28 19:25 336 5 gusting 10 3.9
2020-Jan-28 19:20 334 4 gusting 9 3.9
2020-Jan-28 19:15 326 5 gusting 12 3.9
2020-Jan-28 19:10 328 5 gusting 12 3.9
2020-Jan-28 19:05 325 4 gusting 10 3.9
2020-Jan-28 19:00 335 4 gusting 10 4.4
2020-Jan-28 18:55 321 3 gusting 8 4.4
2020-Jan-28 18:50 301 4 gusting 8 4.4
2020-Jan-28 18:45 317 3 gusting 8 4.4
2020-Jan-28 18:40 336 5 gusting 12 5.0
2020-Jan-28 18:35 335 6 gusting 12 5.0
2020-Jan-28 18:30 322 6 gusting 10 5.0
2020-Jan-28 18:25 319 6 gusting 11 5.0
2020-Jan-28 18:20 332 6 gusting 11 5.0
2020-Jan-28 18:15 342 6 gusting 11 5.0
2020-Jan-28 18:10 335 6 gusting 11 5.0
2020-Jan-28 18:05 329 6 gusting 11 5.0
2020-Jan-28 18:00 324 6 gusting 11 5.0
2020-Jan-28 17:55 335 5 gusting 10 5.0
2020-Jan-28 17:50 326 6 gusting 12 5.0
2020-Jan-28 17:45 326 4 gusting 12 5.0
2020-Jan-28 17:40 328 5 gusting 11 5.0
2020-Jan-28 17:35 331 6 gusting 11 5.6
2020-Jan-28 17:30 335 6 gusting 13 5.6
2020-Jan-28 17:25 341 6 gusting 13 5.6
2020-Jan-28 17:20 338 5 gusting 13 5.6
2020-Jan-28 17:15 334 6 gusting 13 5.6
2020-Jan-28 17:10 332 5 gusting 9 5.0
2020-Jan-28 17:05 334 4 gusting 11 5.6
2020-Jan-28 17:00 330 6 gusting 11 6.1
2020-Jan-28 16:55 337 4 gusting 11 6.1
2020-Jan-28 16:50 345 5 gusting 12 5.6
2020-Jan-28 16:45 324 5 gusting 12 5.6
2020-Jan-28 16:40 324 6 gusting 12 5.6
2020-Jan-28 16:35 328 6 gusting 12 5.6
2020-Jan-28 16:30 328 5 gusting 12 5.6
2020-Jan-28 16:25 330 6 gusting 12 5.6
2020-Jan-28 16:20 342 5 gusting 11 5.6
2020-Jan-28 16:15 327 6 gusting 11 5.6
2020-Jan-28 16:10 324 5 gusting 10 5.6
2020-Jan-28 16:05 342 5 gusting 12 5.6
2020-Jan-28 16:00 338 5 gusting 12 5.6
2020-Jan-28 15:55 334 4 gusting 9 5.6
2020-Jan-28 15:50 326 5 gusting 9 5.0
2020-Jan-28 15:45 335 4 gusting 8 5.0
2020-Jan-28 15:40 334 4 gusting 11 5.0
2020-Jan-28 15:35 346 3 gusting 11 5.0
2020-Jan-28 15:30 342 3 gusting 13 5.0
2020-Jan-28 15:25 343 4 gusting 13 5.0
2020-Jan-28 15:20 328 3 gusting 12 5.0
2020-Jan-28 15:15 330 4 gusting 12 5.0
2020-Jan-28 15:10 334 3 gusting 12 5.0
2020-Jan-28 15:05 340 4 gusting 9 4.4
2020-Jan-28 15:00 329 3 gusting 9 4.4
2020-Jan-28 14:55 326 5 gusting 11 4.4
2020-Jan-28 14:50 341 3 gusting 11 4.4
2020-Jan-28 14:45 334 6 gusting 12 4.4
2020-Jan-28 14:40 332 5 gusting 12 4.4
2020-Jan-28 14:35 342 3 gusting 7 3.9
2020-Jan-28 14:30 349 3 gusting 6 3.9
2020-Jan-28 14:25 338 3 gusting 6 3.9
2020-Jan-28 14:20 339 2 gusting 9 3.9
2020-Jan-28 14:15 341 4 gusting 9 3.3
2020-Jan-28 14:10 337 5 gusting 9 3.3
2020-Jan-28 14:05 333 4 gusting 9 3.3
2020-Jan-28 14:00 325 2 gusting 8 3.3
2020-Jan-28 13:55 330 4 gusting 8 2.8
2020-Jan-28 13:50 319 1 gusting 3 2.8
2020-Jan-28 13:45 314 1 gusting 4 2.8
2020-Jan-28 13:40 309 2 gusting 5 2.2
2020-Jan-28 13:35 315 1 gusting 5 2.2
2020-Jan-28 13:30 311 1 gusting 3 2.2
2020-Jan-28 13:25 297 1 gusting 5 2.2
2020-Jan-28 13:20 306 1 gusting 5 1.7
2020-Jan-28 13:15 281 0 gusting 3 1.7
2020-Jan-28 13:10 288 1 gusting 3 1.7
2020-Jan-28 13:05 289 0 gusting 3 1.7
2020-Jan-28 13:00 291 0 gusting 3 1.1
2020-Jan-28 12:55 295 0 gusting 2 1.1
2020-Jan-28 12:50 302 0 gusting 3 1.1
2020-Jan-28 12:45 301 1 gusting 3 1.1
2020-Jan-28 12:40 297 0 gusting 3 1.1
2020-Jan-28 12:35 301 0 gusting 4 1.1
2020-Jan-28 12:30 279 0 gusting 4 1.1
2020-Jan-28 12:25 291 0 gusting 3 1.1
2020-Jan-28 12:20 301 0 gusting 3 1.1
2020-Jan-28 12:15 296 0 gusting 2 1.1
2020-Jan-28 12:10 299 0 gusting 3 1.1
2020-Jan-28 12:05 297 0 gusting 3 1.1
2020-Jan-28 12:00 299 0 gusting 3 1.1
2020-Jan-28 11:55 305 0 gusting 1 1.1
2020-Jan-28 11:50 302 1.1
2020-Jan-28 11:45 291 1.7
2020-Jan-28 11:40 288 1.7
2020-Jan-28 11:35 290 1.7
2020-Jan-28 11:30 286 1.7
2020-Jan-28 11:25 302 1.7
2020-Jan-28 11:20 332 2.2
2020-Jan-28 11:15 322 0 gusting 2 2.2
2020-Jan-28 11:10 330 0 gusting 2 2.2
2020-Jan-28 11:05 319 0 gusting 3 2.2
2020-Jan-28 11:00 334 1 gusting 5 2.2
2020-Jan-28 10:55 335 1 gusting 6 2.2
2020-Jan-28 10:50 332 1 gusting 6 2.2
2020-Jan-28 10:45 340 2 gusting 6 2.2
2020-Jan-28 10:40 331 2 gusting 6 2.2
2020-Jan-28 10:35 324 2 gusting 6 2.2
2020-Jan-28 10:30 331 0 gusting 6 2.2
2020-Jan-28 10:25 333 1 gusting 6 2.8
2020-Jan-28 10:20 337 1 gusting 6 2.8
2020-Jan-28 10:15 327 2 gusting 5 2.8
2020-Jan-28 10:10 320 2 gusting 6 2.8
2020-Jan-28 10:05 328 2 gusting 6 2.8
2020-Jan-28 10:00 331 1 gusting 4 2.8
2020-Jan-28 09:55 324 1 gusting 4 2.8
2020-Jan-28 09:50 329 1 gusting 4 2.8
2020-Jan-28 09:45 328 1 gusting 4 2.8
2020-Jan-28 09:40 330 1 gusting 5 2.8
2020-Jan-28 09:35 334 2 gusting 5 2.8
2020-Jan-28 09:30 319 2 gusting 5 2.8
2020-Jan-28 09:25 336 1 gusting 6 2.8
2020-Jan-28 09:20 329 1 gusting 6 2.8
2020-Jan-28 09:15 332 1 gusting 4 2.8
2020-Jan-28 09:10 326 1 gusting 4 2.8
2020-Jan-28 09:05 334 1 gusting 3 2.8
2020-Jan-28 09:00 325 0 gusting 3 2.8
2020-Jan-28 08:55 335 1 gusting 5 2.8
2020-Jan-28 08:50 333 2 gusting 5 2.8
2020-Jan-28 08:45 345 2 gusting 5 2.8
2020-Jan-28 08:40 335 1 gusting 5 2.8
2020-Jan-28 08:35 333 1 gusting 5 2.8
2020-Jan-28 08:30 335 2 gusting 5 2.8
2020-Jan-28 08:25 312 0 gusting 5 2.8
2020-Jan-28 08:20 321 0 gusting 3 2.8
2020-Jan-28 08:15 319 0 gusting 3 2.8
2020-Jan-28 08:10 322 0 gusting 3 2.8
2020-Jan-28 08:05 335 0 gusting 3 2.8
2020-Jan-28 08:00 322 1 gusting 5 2.8
2020-Jan-28 07:55 326 1 gusting 5 2.8
2020-Jan-28 07:50 321 1 gusting 4 2.8
2020-Jan-28 07:45 332 0 gusting 3 2.8
2020-Jan-28 07:40 325 0 gusting 3 2.8
2020-Jan-28 07:35 332 1 gusting 6 2.8
2020-Jan-28 07:30 328 1 gusting 6 2.8
2020-Jan-28 07:25 328 2 gusting 5 2.8
2020-Jan-28 07:20 338 1 gusting 5 2.8
2020-Jan-28 07:15 330 2 gusting 5 2.8
2020-Jan-28 07:10 338 2 gusting 6 2.8
2020-Jan-28 07:05 340 3 gusting 6 2.8
2020-Jan-28 07:00 334 2 gusting 6 2.8
2020-Jan-28 06:55 332 3 gusting 9 3.3
2020-Jan-28 06:50 344 4 gusting 9 3.3
2020-Jan-28 06:45 338 2 gusting 5 3.3
2020-Jan-28 06:40 347 1 gusting 5 3.3
2020-Jan-28 06:35 334 2 gusting 5 3.3
2020-Jan-28 06:30 326 2 gusting 5 3.3
2020-Jan-28 06:25 333 1 gusting 4 3.3
2020-Jan-28 06:20 309 0 gusting 3 3.3
2020-Jan-28 06:15 327 0 gusting 2 3.3
2020-Jan-28 06:10 310 0 gusting 3 3.3
2020-Jan-28 06:05 304 0 gusting 3 3.3
2020-Jan-28 06:00 304 0 gusting 2 3.3
2020-Jan-28 05:55 304 0 gusting 2 3.3
2020-Jan-28 05:50 329 0 gusting 3 3.3
2020-Jan-28 05:45 307 0 gusting 3 3.3
2020-Jan-28 05:40 321 0 gusting 2 3.3
2020-Jan-28 05:35 322 0 gusting 1 3.3
2020-Jan-28 05:30 310 0 gusting 3 3.3
2020-Jan-28 05:25 317 0 gusting 3 3.3
2020-Jan-28 05:20 312 0 gusting 3 3.9
2020-Jan-28 05:15 285 0 gusting 3 3.9
2020-Jan-28 05:10 300 0 gusting 4 3.9
2020-Jan-28 05:05 279 0 gusting 4 3.9
2020-Jan-28 05:00 279 0 gusting 2 3.9
2020-Jan-28 04:55 291 0 gusting 2 3.9
2020-Jan-28 04:50 321 1 gusting 5 3.9
2020-Jan-28 04:45 339 2 gusting 6 3.9
2020-Jan-28 04:40 338 2 gusting 6 3.9
2020-Jan-28 04:35 336 1 gusting 5 3.9
2020-Jan-28 04:30 324 2 gusting 5 3.9
2020-Jan-28 04:25 323 1 gusting 3 3.9
2020-Jan-28 04:20 333 0 gusting 5 4.4
2020-Jan-28 04:15 328 2 gusting 5 4.4
2020-Jan-28 04:10 321 1 gusting 3 3.9
2020-Jan-28 04:05 328 0 gusting 3 4.4
2020-Jan-28 04:00 304 0 gusting 1 4.4
2020-Jan-28 03:55 315 0 gusting 1 4.4
2020-Jan-28 03:50 318 0 gusting 5 4.4
2020-Jan-28 03:45 340 1 gusting 5 4.4
2020-Jan-28 03:40 330 1 gusting 5 4.4
2020-Jan-28 03:35 336 2 gusting 5 4.4
2020-Jan-28 03:30 310 1 gusting 5 4.4
2020-Jan-28 03:25 331 0 gusting 3 4.4
2020-Jan-28 03:20 300 0 gusting 3 4.4
2020-Jan-28 03:15 301 4.4
2020-Jan-28 03:10 286 0 gusting 2 4.4
2020-Jan-28 03:05 300 0 gusting 3 4.4
2020-Jan-28 03:00 299 0 gusting 3 4.4
2020-Jan-28 02:55 286 0 gusting 3 4.4
2020-Jan-28 02:50 299 0 gusting 3 4.4
2020-Jan-28 02:45 295 0 gusting 2 4.4
2020-Jan-28 02:40 287 0 gusting 1 4.4
2020-Jan-28 02:35 275 0 gusting 1 4.4
2020-Jan-28 02:30 269 4.4
2020-Jan-28 02:25 289 4.4
2020-Jan-28 02:20 284 0 gusting 1 4.4
2020-Jan-28 02:15 297 4.4
2020-Jan-28 02:10 296 4.4
2020-Jan-28 02:05 279 0 gusting 1 4.4
2020-Jan-28 02:00 281 0 gusting 2 4.4
2020-Jan-28 01:55 290 0 gusting 2 4.4
2020-Jan-28 01:50 284 0 gusting 1 4.4
2020-Jan-28 01:45 285 4.4
2020-Jan-28 01:40 258 4.4
2020-Jan-28 01:35 273 4.4
2020-Jan-28 01:30 259 4.4
2020-Jan-28 01:25 277 4.4
2020-Jan-28 01:20 268 0 gusting 1 4.4
2020-Jan-28 01:15 309 4.4
2020-Jan-28 01:10 269 4.4
2020-Jan-28 01:05 279 4.4
2020-Jan-28 01:00 251 4.4
2020-Jan-28 00:55 273 4.4
2020-Jan-28 00:50 266 4.4
2020-Jan-28 00:45 252 4.4
2020-Jan-28 00:40 254 4.4
2020-Jan-28 00:35 262 0 gusting 1 4.4
2020-Jan-28 00:30 251 4.4
2020-Jan-28 00:25 293 5.0
2020-Jan-28 00:20 293 0 gusting 2 5.0
2020-Jan-28 00:15 288 0 gusting 5 5.0
2020-Jan-28 00:10 271 0 gusting 5 5.0
2020-Jan-28 00:05 286 0 gusting 2 5.0
2020-Jan-28 00:00 292 0 gusting 2 5.0
2020-Jan-27 23:55 292 0 gusting 2 5.0
2020-Jan-27 23:50 268 0 gusting 2 5.0
2020-Jan-27 23:45 280 0 gusting 2 5.0
2020-Jan-27 23:40 287 0 gusting 2 5.0
2020-Jan-27 23:35 269 0 gusting 2 5.0
2020-Jan-27 23:30 273 0 gusting 2 5.0
2020-Jan-27 23:25 281 0 gusting 2 5.0
2020-Jan-27 23:20 302 1 gusting 3 5.6
2020-Jan-27 23:15 311 1 gusting 3 5.6
2020-Jan-27 23:10 293 0 gusting 4 5.6
2020-Jan-27 23:05 290 1 gusting 5 5.6
2020-Jan-27 23:00 287 1 gusting 5 5.6
2020-Jan-27 22:55 305 2 gusting 5 5.6
2020-Jan-27 22:50 304 1 gusting 4 5.6
2020-Jan-27 22:45 307 0 gusting 5 5.6
2020-Jan-27 22:40 303 2 gusting 5 5.6
2020-Jan-27 22:35 315 0 gusting 2 5.6
2020-Jan-27 22:30 308 0 gusting 5 5.6
2020-Jan-27 22:25 315 1 gusting 5 5.6
2020-Jan-27 22:20 328 2 gusting 5 5.6
2020-Jan-27 22:15 311 1 gusting 3 5.6
2020-Jan-27 22:10 306 1 gusting 4 5.6
2020-Jan-27 22:05 297 1 gusting 4 5.6
2020-Jan-27 22:00 319 0 gusting 5 6.1
2020-Jan-27 21:55 324 2 gusting 6 6.1
2020-Jan-27 21:50 310 2 gusting 6 6.1
2020-Jan-27 21:45 311 2 gusting 6 6.1
2020-Jan-27 21:40 300 1 gusting 6 6.1
2020-Jan-27 21:35 319 2 gusting 6 6.1
2020-Jan-27 21:30 283 1 gusting 7 6.1
2020-Jan-27 21:25 303 2 gusting 7 6.1
2020-Jan-27 21:20 301 2 gusting 5 6.1
2020-Jan-27 21:15 305 2 gusting 6 6.1
2020-Jan-27 21:10 321 2 gusting 6 6.1
2020-Jan-27 21:05 301 2 gusting 6 6.1
2020-Jan-27 21:00 289 2 gusting 6 6.1
2020-Jan-27 20:55 317 1 gusting 6 6.1
2020-Jan-27 20:50 300 2 gusting 6 6.1
2020-Jan-27 20:45 305 1 gusting 4 6.1
2020-Jan-27 20:40 305 1 gusting 4 6.1
2020-Jan-27 20:35 296 1 gusting 4 6.1
2020-Jan-27 20:30 273 1 gusting 5 6.1
2020-Jan-27 20:25 277 1 gusting 6 6.1
2020-Jan-27 20:20 275 1 gusting 6 6.1
2020-Jan-27 20:15 276 1 gusting 3 6.1
2020-Jan-27 20:10 280 1 gusting 6 6.1
2020-Jan-27 20:05 274 2 gusting 6 6.1
2020-Jan-27 20:00 275 1 gusting 6 6.1
2020-Jan-27 19:55 303 2 gusting 6 6.1
2020-Jan-27 19:50 273 1 gusting 4 6.1
2020-Jan-27 19:45 281 1 gusting 6 6.1
2020-Jan-27 19:40 285 2 gusting 6 6.1
2020-Jan-27 19:35 268 2 gusting 6 6.1
2020-Jan-27 19:30 293 2 gusting 5 6.1
2020-Jan-27 19:25 273 1 gusting 5 6.1
2020-Jan-27 19:20 286 2 gusting 5 6.1
2020-Jan-27 19:15 292 2 gusting 6 6.1
2020-Jan-27 19:10 274 2 gusting 6 6.1
2020-Jan-27 19:05 297 2 gusting 7 5.6
2020-Jan-27 19:00 271 2 gusting 7 5.6
2020-Jan-27 18:55 287 1 gusting 7 5.6
2020-Jan-27 18:50 283 1 gusting 7 5.6
2020-Jan-27 18:45 281 1 gusting 5 5.6
2020-Jan-27 18:40 281 2 gusting 5 5.6
2020-Jan-27 18:35 267 1 gusting 4 5.6
2020-Jan-27 18:30 269 0 gusting 6 5.6
2020-Jan-27 18:25 287 2 gusting 6 5.6
2020-Jan-27 18:20 264 2 gusting 8 5.6
2020-Jan-27 18:15 253 4 gusting 8 5.6
2020-Jan-27 18:10 260 3 gusting 6 5.6
2020-Jan-27 18:05 266 2 gusting 8 5.6
2020-Jan-27 18:00 269 2 gusting 8 5.6
2020-Jan-27 17:55 256 3 gusting 6 5.6
2020-Jan-27 17:50 279 2 gusting 9 5.6
2020-Jan-27 17:45 244 3 gusting 10 5.6
2020-Jan-27 17:40 244 4 gusting 10 5.6
2020-Jan-27 17:35 245 3 gusting 6 5.6
2020-Jan-27 17:30 261 2 gusting 6 5.6
2020-Jan-27 17:25 260 3 gusting 6 5.0
2020-Jan-27 17:20 268 2 gusting 6 5.0
2020-Jan-27 17:15 260 2 gusting 6 5.0
2020-Jan-27 17:10 262 3 gusting 6 5.0
2020-Jan-27 17:05 267 2 gusting 6 5.0
2020-Jan-27 17:00 275 2 gusting 5 5.0
2020-Jan-27 16:55 276 2 gusting 6 5.0
2020-Jan-27 16:50 270 2 gusting 6 5.0
2020-Jan-27 16:45 261 2 gusting 5 5.0
2020-Jan-27 16:40 281 1 gusting 7 5.0
2020-Jan-27 16:35 290 2 gusting 7 5.0
2020-Jan-27 16:30 278 3 gusting 7 5.0
2020-Jan-27 16:25 279 1 gusting 6 5.0
2020-Jan-27 16:20 274 3 gusting 7 5.0
2020-Jan-27 16:15 268 4 gusting 11 5.0
2020-Jan-27 16:10 255 4 gusting 11 5.0
2020-Jan-27 16:05 282 2 gusting 6 5.0
2020-Jan-27 16:00 277 2 gusting 9 5.0
2020-Jan-27 15:55 257 3 gusting 9 5.0
2020-Jan-27 15:50 253 2 gusting 6 5.0
2020-Jan-27 15:45 258 2 gusting 5 5.0
2020-Jan-27 15:40 256 2 gusting 5 5.0
2020-Jan-27 15:35 264 2 gusting 6 5.0
2020-Jan-27 15:30 265 3 gusting 6 4.4
2020-Jan-27 15:25 266 2 gusting 8 4.4
2020-Jan-27 15:20 253 3 gusting 8 4.4
2020-Jan-27 15:15 243 3 gusting 9 4.4
2020-Jan-27 15:10 246 3 gusting 9 4.4
2020-Jan-27 15:05 254 2 gusting 8 4.4
2020-Jan-27 15:00 247 3 gusting 8 4.4
2020-Jan-27 14:55 266 1 gusting 4 3.9
2020-Jan-27 14:50 263 2 gusting 4 3.9
2020-Jan-27 14:45 260 1 gusting 4 3.9
2020-Jan-27 14:40 250 2 gusting 5 3.9
2020-Jan-27 14:35 251 2 gusting 6 3.9
2020-Jan-27 14:30 246 2 gusting 6 3.9
2020-Jan-27 14:25 243 2 gusting 6 3.9
2020-Jan-27 14:20 247 2 gusting 6 3.9
2020-Jan-27 14:15 254 2 gusting 5 3.9
2020-Jan-27 14:10 254 2 gusting 6 3.3
2020-Jan-27 14:05 248 2 gusting 6 3.3
2020-Jan-27 14:00 263 1 gusting 6 3.3
2020-Jan-27 13:55 252 2 gusting 7 3.3
2020-Jan-27 13:50 252 2 gusting 8 3.3
2020-Jan-27 13:45 245 3 gusting 8 3.3
2020-Jan-27 13:40 250 2 gusting 5 2.8
2020-Jan-27 13:35 247 1 gusting 5 2.8
2020-Jan-27 13:30 252 1 gusting 5 2.8
2020-Jan-27 13:25 265 1 gusting 5 2.8
2020-Jan-27 13:20 248 1 gusting 6 2.8
2020-Jan-27 13:15 260 1 gusting 6 2.8
2020-Jan-27 13:10 248 1 gusting 5 2.2
2020-Jan-27 13:05 253 2 gusting 5 2.2
2020-Jan-27 13:00 243 2 gusting 6 2.2
2020-Jan-27 12:55 239 2 gusting 6 2.2
2020-Jan-27 12:50 242 2 gusting 6 2.2
2020-Jan-27 12:45 239 2 gusting 5 2.2
2020-Jan-27 12:40 246 1 gusting 5 2.2
2020-Jan-27 12:35 245 1 gusting 5 2.2
2020-Jan-27 12:30 246 2 gusting 5 2.2
2020-Jan-27 12:25 247 1 gusting 5 2.2
2020-Jan-27 12:20 248 1 gusting 5 2.2
2020-Jan-27 12:15 244 2 gusting 5 2.2
2020-Jan-27 12:10 247 1 gusting 6 2.2
2020-Jan-27 12:05 242 2 gusting 6 2.2
2020-Jan-27 12:00 246 2 gusting 6 2.2
2020-Jan-27 11:45 258 1 gusting 6 2.2
2020-Jan-27 11:40 244 2 gusting 6 2.2
2020-Jan-27 11:35 247 1 gusting 6 2.2
2020-Jan-27 11:30 245 3 gusting 6 1.7
2020-Jan-27 11:25 244 2 gusting 7 1.7
2020-Jan-27 11:20 243 2 gusting 7 1.7
2020-Jan-27 11:15 247 2 gusting 5 1.7
2020-Jan-27 11:10 248 2 gusting 5 1.7
2020-Jan-27 11:05 245 1 gusting 6 1.7
2020-Jan-27 11:00 245 1 gusting 6 1.7
2020-Jan-27 10:55 246 1 gusting 5 1.7
2020-Jan-27 10:50 245 1 gusting 5 1.7
2020-Jan-27 10:45 252 1 gusting 4 1.7
2020-Jan-27 10:40 244 0 gusting 4 1.7
2020-Jan-27 10:35 252 1 gusting 5 2.2
2020-Jan-27 10:30 242 1 gusting 5 2.2
2020-Jan-27 10:25 252 1 gusting 5 2.2
2020-Jan-27 10:20 244 1 gusting 4 2.2
2020-Jan-27 10:15 242 2 gusting 4 2.2
2020-Jan-27 10:10 246 0 gusting 4 2.2
2020-Jan-27 10:05 246 2 gusting 6 2.2
2020-Jan-27 10:00 244 2 gusting 6 2.2
2020-Jan-27 09:55 244 2 gusting 5 2.2
2020-Jan-27 09:50 246 1 gusting 5 2.2
2020-Jan-27 09:45 248 1 gusting 5 2.2
2020-Jan-27 09:40 240 2 gusting 4 2.2
2020-Jan-27 09:35 240 1 gusting 4 1.7
2020-Jan-27 09:30 239 1 gusting 6 1.7
2020-Jan-27 09:25 245 1 gusting 6 1.7
2020-Jan-27 09:20 240 2 gusting 6 1.7
2020-Jan-27 09:15 243 1 gusting 6 1.7
2020-Jan-27 09:10 235 1 gusting 6 1.7
2020-Jan-27 09:05 243 1 gusting 5 1.7
2020-Jan-27 09:00 242 0 gusting 2 1.7
2020-Jan-27 08:55 240 0 gusting 2 1.7
2020-Jan-27 08:50 238 0 gusting 3 1.7
2020-Jan-27 08:45 243 1 gusting 4 1.7
2020-Jan-27 08:40 240 1 gusting 4 1.7
2020-Jan-27 08:35 243 1 gusting 4 1.7
2020-Jan-27 08:30 242 2 gusting 6 1.7
2020-Jan-27 08:25 237 2 gusting 6 1.7
2020-Jan-27 08:20 237 1 gusting 6 1.7
2020-Jan-27 08:15 237 1 gusting 6 1.7
2020-Jan-27 08:10 238 2 gusting 6 1.7
2020-Jan-27 08:05 235 2 gusting 6 1.7
2020-Jan-27 08:00 243 2 gusting 4 1.7
2020-Jan-27 07:55 239 1 gusting 4 1.7
2020-Jan-27 07:50 238 1 gusting 4 1.1
2020-Jan-27 07:45 239 1 gusting 4 1.1
2020-Jan-27 07:40 238 1 gusting 4 1.1
2020-Jan-27 07:35 236 1 gusting 3 1.1
2020-Jan-27 07:30 239 0 gusting 2 1.1
2020-Jan-27 07:25 246 0 gusting 2 1.1
2020-Jan-27 07:20 236 0 gusting 2 1.1
2020-Jan-27 07:15 229 0 gusting 2 1.1
2020-Jan-27 07:10 221 0 gusting 1 1.1
2020-Jan-27 07:05 232 0 gusting 2 1.1
2020-Jan-27 07:00 236 0 gusting 2 0.6
2020-Jan-27 06:55 232 0 gusting 1 0.6
2020-Jan-27 06:50 224 0.6
2020-Jan-27 06:45 224 0.6
2020-Jan-27 06:40 220 0 gusting 1 1.1
2020-Jan-27 06:35 224 0 gusting 1 0.6
2020-Jan-27 06:30 230 0 gusting 1 1.1
2020-Jan-27 06:25 233 0 gusting 1 1.1
2020-Jan-27 06:20 228 0 gusting 0 0.6
2020-Jan-27 06:15 236 0.6
2020-Jan-27 06:10 235 0.6
2020-Jan-27 06:05 249 1.1
2020-Jan-27 06:00 0.6
2020-Jan-27 05:55 248 0.6
2020-Jan-27 05:50 0.6
2020-Jan-27 05:45 1.1
2020-Jan-27 05:40 1.1
2020-Jan-27 05:35 1.1
2020-Jan-27 05:30 240 1.1
2020-Jan-27 05:25 237 1.1
2020-Jan-27 05:20 237 1.1
2020-Jan-27 05:15 232 0 gusting 2 1.1
2020-Jan-27 05:10 231 0 gusting 1 1.7
2020-Jan-27 05:05 236 1.7
2020-Jan-27 05:00 233 0 gusting 0 1.7
2020-Jan-27 04:55 253 1.7
2020-Jan-27 04:50 242 1.7
2020-Jan-27 04:45 239 0 gusting 2 1.7
2020-Jan-27 04:40 236 1 gusting 2 1.7
2020-Jan-27 04:35 240 0 gusting 2 1.1
2020-Jan-27 04:30 238 0 gusting 3 1.1
2020-Jan-27 04:25 237 0 gusting 3 1.1
2020-Jan-27 04:20 233 0.6
2020-Jan-27 04:15 235 0.6
2020-Jan-27 04:10 242 0.6
2020-Jan-27 04:05 0.6
2020-Jan-27 04:00 -0.0
2020-Jan-27 03:55 0.6
2020-Jan-27 03:50 0.6
2020-Jan-27 03:45 1.1
2020-Jan-27 03:40 1.1
2020-Jan-27 03:35 1.7
2020-Jan-27 03:30 227 1.7
2020-Jan-27 03:25 230 2.2
2020-Jan-27 03:20 232 0 gusting 1 2.2
2020-Jan-27 03:15 231 0 gusting 1 2.2
2020-Jan-27 03:10 230 0 gusting 0 2.2
2020-Jan-27 03:05 228 2.2
2020-Jan-27 03:00 240 2.2
2020-Jan-27 02:55 229 2.8
2020-Jan-27 02:50 249 2.8
2020-Jan-27 02:45 275 2.8
2020-Jan-27 02:40 259 0 gusting 4 2.8
2020-Jan-27 02:35 253 0 gusting 3 2.8
2020-Jan-27 02:30 271 0 gusting 2 3.3
2020-Jan-27 02:25 263 0 gusting 2 3.3
2020-Jan-27 02:20 278 0 gusting 3 2.8
2020-Jan-27 02:15 272 0 gusting 3 2.8
2020-Jan-27 02:10 270 0 gusting 2 3.3
2020-Jan-27 02:05 268 0 gusting 2 3.3
2020-Jan-27 02:00 272 0 gusting 2 3.3
2020-Jan-27 01:55 291 0 gusting 3 3.3
2020-Jan-27 01:50 284 0 gusting 3 3.3
2020-Jan-27 01:45 276 3.3
2020-Jan-27 01:40 272 0 gusting 4 3.3
2020-Jan-27 01:35 280 1 gusting 4 3.3
2020-Jan-27 01:30 284 1 gusting 3 3.3
2020-Jan-27 01:25 279 0 gusting 5 3.3
2020-Jan-27 01:20 269 1 gusting 5 3.3
2020-Jan-27 01:15 264 0 gusting 1 3.3
2020-Jan-27 01:10 269 0 gusting 1 3.3
2020-Jan-27 01:05 262 0 gusting 1 3.3
2020-Jan-27 01:00 270 3.3
2020-Jan-27 00:55 276 0 gusting 2 3.3
2020-Jan-27 00:50 275 0 gusting 2 3.9
2020-Jan-27 00:45 269 0 gusting 2 3.9
2020-Jan-27 00:40 270 0 gusting 3 3.9
2020-Jan-27 00:35 267 0 gusting 3 3.9
2020-Jan-27 00:30 259 0 gusting 1 3.9
2020-Jan-27 00:25 283 0 gusting 2 3.9
2020-Jan-27 00:20 280 0 gusting 3 4.4
2020-Jan-27 00:15 275 0 gusting 4 4.4
2020-Jan-27 00:10 289 1 gusting 4 4.4
2020-Jan-27 00:05 298 1 gusting 4 4.4
2020-Jan-27 00:00 312 0 gusting 3 4.4
2020-Jan-26 23:55 307 1 gusting 4 5.0
2020-Jan-26 23:50 300 1 gusting 5 5.0
2020-Jan-26 23:45 307 2 gusting 5 5.0
2020-Jan-26 23:40 309 1 gusting 6 5.0
2020-Jan-26 23:35 309 3 gusting 6 5.6
2020-Jan-26 23:30 314 1 gusting 6 5.6
2020-Jan-26 23:25 318 2 gusting 6 5.6
2020-Jan-26 23:20 315 2 gusting 6 5.6
2020-Jan-26 23:15 304 2 gusting 7 5.6
2020-Jan-26 23:10 317 1 gusting 6 5.6
2020-Jan-26 23:05 298 0 gusting 3 5.6
2020-Jan-26 23:00 314 1 gusting 3 5.6